STARLINK-2322, 47791

Orbit data source: Space-Track

STARLINK-2322, 47791 is a payload satellite owned by SpaceX/Seattle (US) in LEO that was launched on Thu, 11 Mar 2021 UTC via an FALCON 9 launch vehicle from the Air Force Eastern Test Range (AFETR). Payload-class satellites include a variety of spacecraft equipped with specific instruments for various scientific and technological missions. These include communications satellites like Starlink; space stations such as the ISS; scientific satellites like the Hubble; Earth observation satellites from companies like Planet Labs, Umbra, and HawkEye 360; GPS; miniature CubeSats for education and research; and military/defense satellites.

Loading next visibility...
Identifier
47791, 2021-018E
Orbit
LEO
Country
Flag of USUS
Related business
Manufacturer
SpaceX/Seattle
Mission
Operational Commercial Communications
Bus & Motor
STARLINK, Unknown motor
Mass
260 kg wet, ~248 kg dry
Launch date (UTC)
2021-03-11 (5 years ago)
Launch vehicle
FALCON 9
Launch site
Air Force Eastern Test Range (AFETR)
Object type
Payload
Rocket body
Debris
Shape & HBR
Box + 1 Pan, 10.1 m
Radar Cross Section
13.562 m², Large (>1 m²)

Expand to show TLE details & history
Last TLE update: 19 hours ago

TLE from 19 hours ago
0 STARLINK-2322
1 47791U 21018E   25291.97273884 -.00006583  00000-0 -42353-3 0  9991
2 47791  53.0536 167.8110 0001370  81.1022 279.0122 15.06395633255243
Epoch: 2025-10-18T23:20Z
TLE epoch observation values (Epoch: 2025-10-18T23:20:44.635Z)
Latitude
-0.00004°
Longitude
149.92891°
Altitude
547.956 km
Speed
7.589 km/s
True Right ascension
11h 11m 14s
True Declination
0° 00' 00"
Sunlit
Object was in daylight at epoch
Visualization orbit readout
Latitude
Unknown
Longitude
Unknown
Altitude
Unknown
Speed
Unknown
Apparent Right ascension
Unknown
Apparent Declination
Unknown
Sunlit
N/A
Visualization observer readout
Local Sidereal Time
13:27:37
Azimuth
Unknown
Elevation
Unknown
Doppler factor
Unknown
Orbital elements
Apogee altitude
548.445 km
Perigee altitude
546.547 km
Semi-major axis
6,925.633 km
Eccentricity
0.00014
Inclination
53.0536°
RAAN
167.811°
Arg. of periapsis
81.1022°
True anomaly
278.99669°
Mean anomaly
279.0122°
Eccentric anomaly
279.00445°
Mean motion
3.76577 °/min
Orbital period
95.6 mins
BSTAR
-0.00042353
Loading maneuver chart data...
Computing Atmospheric mass density...

Documentation

Showing up to 5 results
|